Regional Weather Roundup
Issued by NWS

Home | Current Version | Previous Version | Text Only | Print | Product List | Glossary Off
Versions: 1 2 3 4 5 6 7 8 9 10 11 12 13 14 15 16 17 18 19 20 21 22 23 24 25 26 27 28 29 30 31 32 33 34 35 36 37 38 39 40 41 42 43 44 45 46 47 48 49 50

000
ASUS43 KBIS 251002
RWRND

NORTH DAKOTA REGIONAL WEATHER ROUNDUP
NATIONAL WEATHER SERVICE BISMARCK ND
500 AM CDT SAT MAR 25 2017

NOTE: "FAIR" INDICATES FEW OR NO CLOUDS BELOW 12,000 FEET WITH NO
SIGNIFICANT WEATHER AND/OR OBSTRUCTIONS TO VISIBILITY.


NDZ001>003-009>011-017-251100-
NORTHWEST NORTH DAKOTA

CITY           SKY/WX    TMP DP  RH WIND       PRES   REMARKS
WILLISTON      FAIR      43  32  65 VRB7G17   29.84F
MINOT          CLOUDY    32  30  92 SE13      29.99F
MINOT AFB      CLOUDY    31  30  97 SE17      29.98F WCI  19
$$

NDZ018>021-031>035-040>046-251100-
SOUTHWEST NORTH DAKOTA

CITY           SKY/WX    TMP DP  RH WIND       PRES   REMARKS
BISMARCK       CLOUDY    31  30  96 SE15      30.07F FOG
DICKINSON      FAIR      34  30  85 S23G32    29.89F
GARRISON         N/A     30  29  96 SE16      30.00F WCI  19
HETTINGER ARPT CLOUDY    34  30  85 SE12      29.95F
$$

NDZ004>008-012>016-024-026-027-054-251100-
NORTHEAST NORTH DAKOTA

CITY           SKY/WX    TMP DP  RH WIND       PRES   REMARKS
GRAND FORKS    FOG       26  26 100 CALM      30.17F VSB 3/4
GRND FRKS AFB  FOG       24  23  99 CALM      30.17S VSB 1/2
DEVILS LAKE    FAIR      27  25  92 SE7       30.12F WCI  19
$$

NDZ022-023-025-028>030-036>039-047>053-251100-
SOUTHEAST NORTH DAKOTA

CITY           SKY/WX    TMP DP  RH WIND       PRES   REMARKS
FARGO          CLEAR     29  28  96 SE5       30.17F
JAMESTOWN      FAIR      26  24  92 CALM      30.12F FOG
$$





USA.gov is the U.S. government's official web portal to all federal, state and local government web resources and services.